Location: Altamira
(10.5079°N, 66.8544°W)
Time: 15:53:00
(UTC+00:00)

Hubble Space Telescope - Pass Details

Date: 07 December 2023
Orbit: 516 x 519 km, 28.5° (Epoch: 23 February)

Event Time Altitude Azimuth Distance (km) Brightness Sun altitude
Rises 23:06:26 0° 291° (WNW) 2,613 5.1 -14.9°
Reaches altitude 10° 23:08:43 10° 286° (WNW) 1,728 4.2 -15.4°
Maximum altitude 23:12:36 51° 210° (SSW) 649 1.5 -16.3°
Enters shadow 23:16:13 12° 134° (SE) 1,631 3.0 -17.1°
